SCP
0 0 0 0 0 0 0 0 0 0 0 0 0 0 0 0 0 0 0 0 0 0 0 0 0 0 0 0 0 0 0 0 0 0 0 0 0 0 0 0 0 0 0 0
0 0 0 0 0 0 0 0 0 0 0 0 0 0 0 0 0 0 0 0 0 0 0 0 0 0 0 0 0 0 0 0 0 0 0 0 0 0 0 0 0 0 0 0
0 0 0 0 0 0 0 0 0 0 0 0 0 0 0 0 0 0 0 0 0 0 0 0 0 0 0 0 0 0 0 0 0 0 0 0 0 0 0 0 0 0 0 0
0 0 0 0 0 0 0 0 0 0 0 0 0 0 0 0 0 0 0 0 0 0 -0 0 0 0 0 0 0 0 0 0 0 0 0 0 0 0 0 0 0 0 0 0
0 0 0 0 0 0 0 0 0 0 0 0 0 0 0 0 0 0 0 0 0 0 -0 0 0 0 0 0 0 0 0 0 0 0 0 0 0 0 0 0 0 0 0 0
0 0 0 0 0 0 0 0 0 0 0 0 0 0 0 0 0 0 0 0 0 0 0 0 -0 -0 0 0 0 0 0 0 0 0 0 0 0 0 0 0 0 0 0 0
0 0 0 0 0 0 0 0 0 0 0 0 0 0 0 0 0 0 0 0 0 -0 0 0 -0 -0 0 0 0 0 0 0 0 0 0 0 0 0 0 0 0 0 0 0
0 0 0 0 0 0 0 0 0 0 0 0 0 0 0 0 0 0 0 0 0 0 -0 -0 -0 0 0 0 0 0 0 0 0 0 0 0 0 0 0 0 0 0 0 0
0 0 0 0 0 0 0 0 0 0 0 0 0 0 0 0 0 0 0 0 -0 -0 0 -0 -0 0 0 0 0 0 0 0 0 0 0 0 0 0 0 0 0 0 0 0
0 0 0 0 0 0 0 0 0 0 0 -0 0 0 0 0 0 0 0 0 0 -0 0 -0 -0 0 0 0 0 0 0 0 0 0 0 0 0 0 0 0 0 0 0 0
0 0 0 0 0 0 0 0 0 0 0 0 0 0 0 0 0 0 0 0 -0 -0 -0 -0 -0 0 0 0 0 0 0 0 0 0 0 0 0 0 0 0 0 0 0 0
0 0 0 -0 -0 -0 0 0 0 0 0 0 0 0 0 0 0 0 0 0 -0 -0 0 -0 -0 0 0 0 0 0 0 0 0 0 0 0 0 0 0 0 0 0 0 0
0 0 0 0 0 -0 0 0 0 0 0 0 0 0 0 0 0 0 0 0 0 -0 -0 -0 0 0 0 0 0 0 0 0 0 0 0 0 0 0 0 0 0 0 0 0
0 0 0 0 0 0 -0 0 0 0 0 0 0 0 0 0 0 0 0 0 -0 -0 -0 -0 -0 0 0 0 0 0 0 0 0 0 0 0 0 0 0 0 0 0 0 0
0 0 0 0 0 0 0 0 0 0 0 0 0 0 0 0 0 0 0 0 -0 -0 -0 -0 0 0 0 0 0 0 0 0 0 0 0 0 0 0 0 0 0 0 0 0
0 0 0 0 0 0 0 0 0 0 0 0 0 0 0 0 0 0 0 0 0 0 -0 -0 0 0 0 0 0 0 0 0 0 0 0 0 0 0 0 0 0 0 0 0
0 0 0 -0 -0 0 0 0 0 -0 0 0 0 -0 0 0 0 0 0 -0 -0 -0 0 -0 0 0 0 0 0 0 0 0 0 0 0 0 0 0 0 0 0 0 0 0
0 0 0 -0 -0 -0 0 0 -0 -0 0 0 -0 -0 0 0 0 0 0 -0 -0 0 0 -0 -0 0 0 0 0 0 0 0 0 0 0 0 0 0 0 0 0 0 0 0
0 0 0 -0 0 0 0 0 -0 0 0 -0 -0 -0 -0 -0 0 0 0 0 0 0 0 0 0 0 0 0 0 0 0 0 0 0 0 0 0 0 0 0 0 0 0 0
-0 -0 -0 0 0 0 0 0 0 0 -0 -0 -0 -0 -0 -0 0 0 0 0 0 0 0 0 0 0 0 0 0 0 0 0 0 0 0 0 0 0 0 0 0 0 0 0
-0 0 0 0 0 -0 0 0 0 -0 -0 -0 -0 -0 -0 0 0 0 0 0 0 0 0 0 0 0 0 0 0 0 0 0 0 0 0 0 0 0 0 0 0 0 0 0
0 0 0 0 0 0 0 0 0 -0 -0 -0 0 0 0 -0 0 0 0 0 0 0 0 0 0 0 0 0 0 0 0 0 0 0 0 0 0 0 0 0 0 0 0 0
0 0 0 0 0 -0 -0 -0 -0 0 -0 0 -0 0 0 -0 0 0 0 0 0 0 0 0 0 0 0 0 0 0 0 0 0 0 0 0 0 0 0 0 0 0 0 0
0 0 0 0 0 -0 -0 0 0 0 0 0 0 0 0 0 0 0 0 0 0 0 0 0 0 0 0 0 0 0 0 0 0 0 0 0 0 0 0 0 0 0 0 0
0 0 -0 0 0 0 0 0 0 0 0 0 0 0 0 0 0 0 0 0 0 0 0 0 0 0 0 0 0 0 0 0 0 0 0 0 0 0 0 0 0 0 0 0
-0 0 -0 0 0 0 0 0 0 0 0 0 0 0 0 0 0 0 0 0 0 0 0 0 0 0 0 0 0 0 0 0 0 0 0 0 0 0 0 0 0 0 0 0
0 0 -0 -0 -0 -0 -0 -0 0 0 0 0 0 0 0 0 0 0 0 0 0 0 0 0 0 0 0 0 0 0 0 0 0 0 0 0 0 0 0 0 0 0 0 0
Wind_Speed_500mb
29 25 25 32 33 27 27 15 4 15 38 20 13 14 13 20 27 25 29 15 27 32 36 22 27 35 36 49 54 30 44 16 26 26 7 10 23 27 29 11 14 8 10 18
31 30 29 27 32 33 41 17 19 26 45 14 20 11 21 26 25 16 12 20 23 33 28 20 31 16 22 20 27 24 21 17 17 10 10 4 13 15 29 14 6 20 16 16
43 39 36 34 34 39 49 23 9 23 45 37 23 27 27 29 33 35 38 30 26 16 34 37 23 19 4 2 17 58 20 11 30 40 44 13 14 16 23 30 5 34 27 32
50 48 45 42 38 38 53 31 13 23 12 31 35 23 12 26 21 32 30 19 45 45 19 35 42 46 47 15 6 2 13 21 25 42 28 9 12 25 28 31 47 23 33 30
58 56 52 51 46 41 53 30 18 26 26 34 39 41 43 46 41 19 19 40 41 36 53 37 44 29 14 25 3 6 0 5 10 27 22 24 20 10 32 41 24 26 26 29
64 63 63 65 57 50 46 59 46 31 31 24 27 35 49 53 55 48 59 44 38 38 51 54 62 63 73 12 11 5 5 7 9 46 10 15 7 38 18 18 12 23 27 32
65 68 69 70 69 71 78 56 39 15 16 30 43 43 49 47 45 41 42 53 44 72 85 69 80 75 69 44 30 7 14 10 14 25 4 18 14 5 24 31 14 24 8 12
69 71 70 69 71 79 82 79 63 32 15 37 35 52 50 61 60 45 47 49 54 48 46 13 17 26 27 36 34 33 11 18 6 8 10 13 29 8 12 15 24 27 18 14
78 76 75 75 71 78 81 86 87 62 9 40 72 47 51 35 32 29 40 45 52 52 24 9 18 20 17 18 15 30 18 13 24 6 9 22 24 24 25 9 16 18 27 19
86 86 87 84 81 79 84 84 89 71 37 57 52 42 46 59 37 22 21 29 27 50 28 20 22 30 14 21 27 18 16 6 37 27 14 16 9 7 32 21 16 17 29 32
80 83 86 84 86 87 86 99 94 85 38 63 58 92 69 36 53 25 36 17 22 17 19 19 14 16 13 18 33 22 19 20 10 8 21 37 17 12 22 11 13 27 32 41
52 63 71 78 81 83 93 97 99 97 62 39 50 77 101 91 70 64 31 24 26 18 15 14 10 14 10 25 18 15 19 12 16 21 12 1 8 2 10 28 39 28 37 35
33 42 54 65 71 80 85 91 85 81 63 42 65 61 99 80 99 80 33 36 41 32 59 12 12 15 5 18 26 18 9 8 8 4 8 9 11 16 21 22 34 40 38 36
34 39 46 54 57 65 76 88 88 86 24 11 25 53 84 80 85 95 92 90 49 38 25 19 12 11 11 9 7 24 9 21 29 12 12 19 5 22 43 46 44 42 35 29
26 27 31 38 52 67 65 78 86 96 65 6 12 38 52 82 84 85 114 77 61 60 19 11 21 18 3 5 2 7 9 11 15 10 32 22 20 50 43 45 47 37 25 26
33 43 42 36 51 50 54 33 75 90 92 20 7 12 32 61 91 92 71 66 56 37 19 8 18 39 15 8 9 2 22 20 16 9 41 15 20 49 41 33 28 27 25 23
47 17 45 66 85 82 62 19 21 84 83 19 5 8 19 52 61 59 59 70 43 47 23 14 8 12 19 4 7 9 24 25 23 36 51 37 50 30 34 29 29 27 24 19
7 26 34 49 37 88 54 10 20 89 57 16 7 5 5 31 23 18 42 25 37 26 23 12 9 11 3 4 8 22 30 33 36 16 10 12 37 47 41 33 27 27 26 24
4 22 28 50 54 30 21 38 74 71 20 9 7 5 5 13 8 15 17 20 9 17 8 8 11 6 8 5 19 40 52 38 46 30 33 39 39 38 38 41 38 42 40 36
7 2 9 17 17 63 72 29 8 14 9 7 4 5 5 6 2 3 5 15 7 7 3 13 6 6 5 6 21 30 41 40 60 56 36 48 44 47 46 45 42 41 42 39
12 12 12 21 33 16 5 10 9 10 6 14 9 10 5 2 3 4 3 1 2 5 5 6 5 4 7 17 33 38 40 47 41 34 47 43 50 56 49 42 39 42 40 39
11 11 13 7 3 3 3 2 4 6 3 8 6 10 10 8 5 4 3 1 3 5 7 4 7 2 21 28 38 39 36 35 35 44 50 51 47 46 48 49 46 41 38 37
7 4 5 2 3 2 2 2 3 2 5 6 8 6 7 8 6 4 2 3 4 3 3 1 3 14 31 40 46 46 45 47 51 49 46 50 51 47 47 47 39 46 48 42
3 4 6 4 4 3 3 4 2 2 8 21 16 7 2 4 5 3 5 5 3 2 4 5 6 27 42 48 54 60 55 53 54 53 52 52 51 48 44 48 49 49 48 42
6 7 6 6 8 5 5 6 15 21 19 11 6 8 6 4 6 2 5 3 2 4 2 4 23 42 53 50 47 54 53 53 54 53 54 53 54 57 56 49 47 43 43 39
6 11 4 7 4 7 17 18 9 2 4 4 5 4 5 5 4 4 2 3 3 1 4 21 46 50 47 47 49 51 52 51 55 55 57 60 58 57 54 49 46 44 37 34
6 5 10 6 7 4 6 8 9 7 6 3 3 6 5 1 4 4 1 3 2 4 21 36 44 56 57 53 52 51 54 56 58 60 57 55 49 53 56 56 49 41 33 28
Wind_Direction_500mb
268 265 264 257 250 240 230 211 200 201 171 179 210 220 205 250 266 235 230 264 271 272 278 303 236 216 217 196 204 197 211 209 229 208 135 225 201 211 185 194 204 236 257 250
270 268 267 265 242 227 218 213 195 190 193 210 221 240 241 243 255 229 230 243 218 273 303 270 263 253 233 215 193 188 181 210 227 230 235 112 212 195 200 197 61 209 208 250
269 268 261 256 248 229 225 196 196 190 212 229 225 224 249 251 251 246 247 256 246 280 284 280 283 271 293 178 216 215 179 196 214 226 227 185 206 202 204 195 165 236 226 241
264 260 256 249 244 231 219 200 205 194 198 219 218 225 243 246 241 233 224 234 235 240 260 281 272 272 254 278 178 248 177 202 214 236 240 191 205 217 199 202 222 220 250 231
264 263 257 249 242 235 230 212 194 207 227 194 207 217 231 241 249 251 242 237 248 242 235 234 277 316 246 260 301 129 155 303 189 245 230 229 248 222 208 220 233 238 243 244
263 259 256 249 241 233 233 240 232 214 215 205 193 211 220 229 240 250 246 257 268 267 256 253 266 293 283 278 331 97 115 112 231 248 206 168 220 229 181 192 186 216 223 237
263 257 253 247 240 231 233 232 236 221 228 206 215 217 216 224 225 235 248 239 244 256 266 283 277 288 275 255 263 262 148 146 230 255 160 220 242 238 228 228 210 207 191 169
264 259 256 248 241 232 234 236 231 218 240 222 225 224 225 236 245 243 243 250 261 277 272 284 269 258 240 237 235 243 192 200 214 241 220 281 270 189 157 174 238 210 202 159
266 255 250 248 245 236 236 235 237 238 256 218 221 221 222 228 228 246 245 251 255 255 250 243 239 239 201 184 199 213 191 211 213 139 235 225 255 193 184 147 249 177 186 158
265 257 250 246 243 239 236 237 234 229 243 255 220 220 218 225 229 246 246 230 243 242 233 226 241 253 213 199 188 168 165 172 203 210 233 269 243 218 159 182 241 173 170 155
265 252 247 245 241 238 233 235 234 225 232 250 231 224 221 215 214 222 229 219 238 235 252 210 204 241 226 202 200 175 167 170 180 147 204 246 174 138 188 192 117 152 159 166
263 247 244 242 241 239 234 231 227 229 228 244 251 231 230 222 221 216 223 230 228 219 215 210 212 229 216 192 212 190 202 188 187 191 207 155 148 17 152 150 150 158 148 144
271 251 243 242 242 237 235 229 217 216 224 236 232 231 222 222 231 237 216 221 233 241 266 310 238 256 207 182 208 173 199 151 192 130 173 139 140 132 157 167 154 149 147 145
288 265 249 243 244 239 233 224 214 214 210 224 239 235 222 228 218 225 236 243 243 238 259 299 284 257 179 209 168 198 186 157 217 251 115 106 176 167 150 145 143 145 145 152
299 284 270 256 244 233 230 227 216 217 199 208 220 238 235 225 224 236 237 230 235 251 244 207 251 287 165 300 136 194 184 158 181 217 180 184 182 174 161 154 158 157 155 157
320 305 297 275 247 226 220 220 216 213 211 218 244 250 225 219 218 223 220 216 211 236 247 231 231 240 241 202 202 134 187 186 191 164 176 148 154 172 165 160 148 147 147 159
320 340 326 287 240 216 193 181 178 201 189 193 232 255 236 219 207 219 226 235 212 217 232 217 257 248 195 131 195 183 175 157 143 148 127 114 150 173 164 144 147 153 153 165
270 352 19 54 105 167 169 144 174 183 174 185 227 237 174 187 174 183 186 197 200 207 196 214 194 256 70 224 165 160 156 141 141 135 141 186 162 156 160 158 161 175 166 151
66 38 58 75 75 92 108 126 147 160 166 187 199 200 242 188 183 142 159 167 194 186 190 196 203 173 217 170 162 163 165 159 154 126 120 140 143 139 148 164 161 148 137 139
72 35 42 34 53 121 129 128 119 161 234 216 211 141 212 184 44 58 143 192 166 173 196 147 183 203 120 147 189 178 171 168 160 134 118 139 134 139 141 141 142 142 138 132
15 35 58 96 122 136 123 132 180 175 198 180 182 183 156 147 167 145 271 227 185 134 143 180 177 221 175 158 154 151 154 159 160 161 151 160 162 152 145 136 134 131 131 127
70 98 102 96 102 38 32 158 162 201 169 147 165 159 163 144 168 143 141 99 250 110 132 141 195 131 136 136 135 133 135 141 151 161 149 147 142 142 138 133 132 133 130 128
132 117 113 193 265 59 262 289 148 150 145 159 165 143 126 116 98 77 100 89 38 117 66 171 16 139 127 131 138 139 147 153 147 138 136 131 128 129 134 134 136 133 123 118
128 80 35 29 342 5 4 325 45 111 109 105 102 78 97 155 91 349 46 52 126 47 185 188 150 131 130 139 142 147 138 137 133 132 132 129 129 132 133 130 128 124 119 114
72 62 49 12 319 316 346 62 89 102 101 71 76 84 105 64 106 88 114 69 261 247 264 114 136 134 144 142 140 139 140 139 135 136 133 133 135 132 128 128 125 122 117 115
72 50 68 330 45 52 65 73 84 172 261 10 48 92 71 66 91 82 40 157 224 315 80 135 139 142 144 141 143 141 139 141 138 137 140 139 139 135 133 129 125 121 117 110
64 62 53 62 79 53 17 360 18 52 148 46 10 50 48 128 85 86 78 179 10 112 131 139 144 148 150 148 142 140 141 141 144 144 145 142 143 138 135 131 127 121 116 110
Wind_Speed_850mb
29 25 25 32 33 27 27 15 4 15 38 20 13 14 13 20 27 25 29 15 27 32 36 22 27 35 36 49 54 30 44 16 26 26 7 10 23 27 29 11 14 8 10 18
31 30 29 27 32 33 41 17 19 26 45 14 20 11 21 26 25 16 12 20 23 33 28 20 31 16 22 20 27 24 21 17 17 10 10 4 13 15 29 14 6 20 16 16
43 39 36 34 34 39 49 23 9 23 45 37 23 27 27 29 33 35 38 30 26 16 34 37 23 19 4 2 17 58 20 11 30 40 44 13 14 16 23 30 5 34 27 32
50 48 45 42 38 38 53 31 13 23 12 31 35 23 12 26 21 32 30 19 45 45 19 35 42 46 47 15 6 2 13 21 25 42 28 9 12 25 28 31 47 23 33 30
58 56 52 51 46 41 53 30 18 26 26 34 39 41 43 46 41 19 19 40 41 36 53 37 44 29 14 25 3 6 0 5 10 27 22 24 20 10 32 41 24 26 26 29
64 63 63 65 57 50 46 59 46 31 31 24 27 35 49 53 55 48 59 44 38 38 51 54 62 63 73 12 11 5 5 7 9 46 10 15 7 38 18 18 12 23 27 32
65 68 69 70 69 71 78 56 39 15 16 30 43 43 49 47 45 41 42 53 44 72 85 69 80 75 69 44 30 7 14 10 14 25 4 18 14 5 24 31 14 24 8 12
69 71 70 69 71 79 82 79 63 32 15 37 35 52 50 61 60 45 47 49 54 48 46 13 17 26 27 36 34 33 11 18 6 8 10 13 29 8 12 15 24 27 18 14
78 76 75 75 71 78 81 86 87 62 9 40 72 47 51 35 32 29 40 45 52 52 24 9 18 20 17 18 15 30 18 13 24 6 9 22 24 24 25 9 16 18 27 19
86 86 87 84 81 79 84 84 89 71 37 57 52 42 46 59 37 22 21 29 27 50 28 20 22 30 14 21 27 18 16 6 37 27 14 16 9 7 32 21 16 17 29 32
80 83 86 84 86 87 86 99 94 85 38 63 58 92 69 36 53 25 36 17 22 17 19 19 14 16 13 18 33 22 19 20 10 8 21 37 17 12 22 11 13 27 32 41
52 63 71 78 81 83 93 97 99 97 62 39 50 77 101 91 70 64 31 24 26 18 15 14 10 14 10 25 18 15 19 12 16 21 12 1 8 2 10 28 39 28 37 35
33 42 54 65 71 80 85 91 85 81 63 42 65 61 99 80 99 80 33 36 41 32 59 12 12 15 5 18 26 18 9 8 8 4 8 9 11 16 21 22 34 40 38 36
34 39 46 54 57 65 76 88 88 86 24 11 25 53 84 80 85 95 92 90 49 38 25 19 12 11 11 9 7 24 9 21 29 12 12 19 5 22 43 46 44 42 35 29
26 27 31 38 52 67 65 78 86 96 65 6 12 38 52 82 84 85 114 77 61 60 19 11 21 18 3 5 2 7 9 11 15 10 32 22 20 50 43 45 47 37 25 26
33 43 42 36 51 50 54 33 75 90 92 20 7 12 32 61 91 92 71 66 56 37 19 8 18 39 15 8 9 2 22 20 16 9 41 15 20 49 41 33 28 27 25 23
47 17 45 66 85 82 62 19 21 84 83 19 5 8 19 52 61 59 59 70 43 47 23 14 8 12 19 4 7 9 24 25 23 36 51 37 50 30 34 29 29 27 24 19
7 26 34 49 37 88 54 10 20 89 57 16 7 5 5 31 23 18 42 25 37 26 23 12 9 11 3 4 8 22 30 33 36 16 10 12 37 47 41 33 27 27 26 24
4 22 28 50 54 30 21 38 74 71 20 9 7 5 5 13 8 15 17 20 9 17 8 8 11 6 8 5 19 40 52 38 46 30 33 39 39 38 38 41 38 42 40 36
7 2 9 17 17 63 72 29 8 14 9 7 4 5 5 6 2 3 5 15 7 7 3 13 6 6 5 6 21 30 41 40 60 56 36 48 44 47 46 45 42 41 42 39
12 12 12 21 33 16 5 10 9 10 6 14 9 10 5 2 3 4 3 1 2 5 5 6 5 4 7 17 33 38 40 47 41 34 47 43 50 56 49 42 39 42 40 39
11 11 13 7 3 3 3 2 4 6 3 8 6 10 10 8 5 4 3 1 3 5 7 4 7 2 21 28 38 39 36 35 35 44 50 51 47 46 48 49 46 41 38 37
7 4 5 2 3 2 2 2 3 2 5 6 8 6 7 8 6 4 2 3 4 3 3 1 3 14 31 40 46 46 45 47 51 49 46 50 51 47 47 47 39 46 48 42
3 4 6 4 4 3 3 4 2 2 8 21 16 7 2 4 5 3 5 5 3 2 4 5 6 27 42 48 54 60 55 53 54 53 52 52 51 48 44 48 49 49 48 42
6 7 6 6 8 5 5 6 15 21 19 11 6 8 6 4 6 2 5 3 2 4 2 4 23 42 53 50 47 54 53 53 54 53 54 53 54 57 56 49 47 43 43 39
6 11 4 7 4 7 17 18 9 2 4 4 5 4 5 5 4 4 2 3 3 1 4 21 46 50 47 47 49 51 52 51 55 55 57 60 58 57 54 49 46 44 37 34
6 5 10 6 7 4 6 8 9 7 6 3 3 6 5 1 4 4 1 3 2 4 21 36 44 56 57 53 52 51 54 56 58 60 57 55 49 53 56 56 49 41 33 28
Wind_Direction_850mb
268 265 264 257 250 240 230 211 200 201 171 179 210 220 205 250 266 235 230 264 271 272 278 303 236 216 217 196 204 197 211 209 229 208 135 225 201 211 185 194 204 236 257 250
270 268 267 265 242 227 218 213 195 190 193 210 221 240 241 243 255 229 230 243 218 273 303 270 263 253 233 215 193 188 181 210 227 230 235 112 212 195 200 197 61 209 208 250
269 268 261 256 248 229 225 196 196 190 212 229 225 224 249 251 251 246 247 256 246 280 284 280 283 271 293 178 216 215 179 196 214 226 227 185 206 202 204 195 165 236 226 241
264 260 256 249 244 231 219 200 205 194 198 219 218 225 243 246 241 233 224 234 235 240 260 281 272 272 254 278 178 248 177 202 214 236 240 191 205 217 199 202 222 220 250 231
264 263 257 249 242 235 230 212 194 207 227 194 207 217 231 241 249 251 242 237 248 242 235 234 277 316 246 260 301 129 155 303 189 245 230 229 248 222 208 220 233 238 243 244
263 259 256 249 241 233 233 240 232 214 215 205 193 211 220 229 240 250 246 257 268 267 256 253 266 293 283 278 331 97 115 112 231 248 206 168 220 229 181 192 186 216 223 237
263 257 253 247 240 231 233 232 236 221 228 206 215 217 216 224 225 235 248 239 244 256 266 283 277 288 275 255 263 262 148 146 230 255 160 220 242 238 228 228 210 207 191 169
264 259 256 248 241 232 234 236 231 218 240 222 225 224 225 236 245 243 243 250 261 277 272 284 269 258 240 237 235 243 192 200 214 241 220 281 270 189 157 174 238 210 202 159
266 255 250 248 245 236 236 235 237 238 256 218 221 221 222 228 228 246 245 251 255 255 250 243 239 239 201 184 199 213 191 211 213 139 235 225 255 193 184 147 249 177 186 158
265 257 250 246 243 239 236 237 234 229 243 255 220 220 218 225 229 246 246 230 243 242 233 226 241 253 213 199 188 168 165 172 203 210 233 269 243 218 159 182 241 173 170 155
265 252 247 245 241 238 233 235 234 225 232 250 231 224 221 215 214 222 229 219 238 235 252 210 204 241 226 202 200 175 167 170 180 147 204 246 174 138 188 192 117 152 159 166
263 247 244 242 241 239 234 231 227 229 228 244 251 231 230 222 221 216 223 230 228 219 215 210 212 229 216 192 212 190 202 188 187 191 207 155 148 17 152 150 150 158 148 144
271 251 243 242 242 237 235 229 217 216 224 236 232 231 222 222 231 237 216 221 233 241 266 310 238 256 207 182 208 173 199 151 192 130 173 139 140 132 157 167 154 149 147 145
288 265 249 243 244 239 233 224 214 214 210 224 239 235 222 228 218 225 236 243 243 238 259 299 284 257 179 209 168 198 186 157 217 251 115 106 176 167 150 145 143 145 145 152
299 284 270 256 244 233 230 227 216 217 199 208 220 238 235 225 224 236 237 230 235 251 244 207 251 287 165 300 136 194 184 158 181 217 180 184 182 174 161 154 158 157 155 157
320 305 297 275 247 226 220 220 216 213 211 218 244 250 225 219 218 223 220 216 211 236 247 231 231 240 241 202 202 134 187 186 191 164 176 148 154 172 165 160 148 147 147 159
320 340 326 287 240 216 193 181 178 201 189 193 232 255 236 219 207 219 226 235 212 217 232 217 257 248 195 131 195 183 175 157 143 148 127 114 150 173 164 144 147 153 153 165
270 352 19 54 105 167 169 144 174 183 174 185 227 237 174 187 174 183 186 197 200 207 196 214 194 256 70 224 165 160 156 141 141 135 141 186 162 156 160 158 161 175 166 151
66 38 58 75 75 92 108 126 147 160 166 187 199 200 242 188 183 142 159 167 194 186 190 196 203 173 217 170 162 163 165 159 154 126 120 140 143 139 148 164 161 148 137 139
72 35 42 34 53 121 129 128 119 161 234 216 211 141 212 184 44 58 143 192 166 173 196 147 183 203 120 147 189 178 171 168 160 134 118 139 134 139 141 141 142 142 138 132
15 35 58 96 122 136 123 132 180 175 198 180 182 183 156 147 167 145 271 227 185 134 143 180 177 221 175 158 154 151 154 159 160 161 151 160 162 152 145 136 134 131 131 127
70 98 102 96 102 38 32 158 162 201 169 147 165 159 163 144 168 143 141 99 250 110 132 141 195 131 136 136 135 133 135 141 151 161 149 147 142 142 138 133 132 133 130 128
132 117 113 193 265 59 262 289 148 150 145 159 165 143 126 116 98 77 100 89 38 117 66 171 16 139 127 131 138 139 147 153 147 138 136 131 128 129 134 134 136 133 123 118
128 80 35 29 342 5 4 325 45 111 109 105 102 78 97 155 91 349 46 52 126 47 185 188 150 131 130 139 142 147 138 137 133 132 132 129 129 132 133 130 128 124 119 114
72 62 49 12 319 316 346 62 89 102 101 71 76 84 105 64 106 88 114 69 261 247 264 114 136 134 144 142 140 139 140 139 135 136 133 133 135 132 128 128 125 122 117 115
72 50 68 330 45 52 65 73 84 172 261 10 48 92 71 66 91 82 40 157 224 315 80 135 139 142 144 141 143 141 139 141 138 137 140 139 139 135 133 129 125 121 117 110
64 62 53 62 79 53 17 360 18 52 148 46 10 50 48 128 85 86 78 179 10 112 131 139 144 148 150 148 142 140 141 141 144 144 145 142 143 138 135 131 127 121 116 110